SCP
0 0 0 0 0 0 0 0 0 0 0 0 0 -0 -0 -0 -0 -0 0 0 0 0 0 0 0 0 0 0 0 0 0 0 0 0 0 0 0 0 0 0 0 0 0 0 0
0 0 0 0 0 0 0 0 0 0 0 0 0 0 0 0 0 0 0 0 0 0 0 0 0 0 0 0 0 0 0 0 0 0 0 0 0 0 0 0 0 0 0 0 0
0 0 0 0 0 0 0 0 0 0 0 0 0 0 0 0 0 0 0 0 0 0 0 0 0 0 0 0 0 0 0 0 0 0 0 0 0 0 0 0 0 0 0 0 0
0 0 0 0 0 0 0 0 0 0 0 0 0 0 0 0 0 0 0 0 0 0 0 0 0 0 0 0 0 0 0 0 0 0 0 0 0 0 0 0 0 0 0 0 0
0 0 0 0 0 0 0 0 0 0 0 0 0 0 0 0 0 0 0 0 0 0 0 0 0 0 0 0 0 0 0 0 0 0 0 0 0 0 0 0 0 0 0 0 0
0 0 0 0 0 0 0 0 0 0 0 0 0 0 0 0 0 0 0 0 0 0 0 0 0 0 0 0 0 0 0 0 0 0 0 0 0 0 0 0 0 0 0 0 0
0 0 0 0 0 0 0 0 0 0 0 0 0 0 0 0 0 0 0 0 0 0 0 0 0 0 0 0 0 0 0 0 0 0 0 0 0 0 0 0 0 0 0 0 0
0 0 0 0 0 0 0 0 0 0 0 0 0 0 0 0 0 0 0 0 0 0 0 0 0 0 0 0 0 0 0 0 0 0 0 0 0 0 0 0 0 0 0 0 0
0 0 0 0 0 0 0 0 0 0 0 0 0 0 0 0 0 0 0 0 0 0 0 0 0 0 0 0 0 0 0 0 0 0 0 0 0 0 0 0 0 0 0 0 0
0 0 0 0 0 0 0 0 0 0 0 0 0 0 0 0 0 0 0 0 0 0 0 0 0 0 0 0 0 0 0 0 0 0 0 0 0 0 0 0 0 0 0 0 0
0 0 0 0 0 0 0 0 0 0 0 0 0 0 0 0 0 0 0 0 0 0 0 0 0 0 0 0 0 0 0 0 0 0 0 0 0 0 0 0 0 0 0 0 0
0 0 0 0 0 0 0 0 0 0 0 0 0 0 0 0 0 0 0 0 0 0 0 0 0 0 0 0 0 0 0 0 0 0 0 0 0 0 0 0 0 0 0 0 0
0 0 0 0 0 0 0 0 0 0 0 0 0 0 0 0 0 0 0 0 0 0 0 0 0 0 0 0 0 0 0 0 0 0 0 0 0 0 0 0 0 0 0 0 0
0 0 0 0 0 0 0 0 0 0 0 0 0 0 0 0 0 0 0 0 0 0 0 0 0 0 0 0 0 0 0 0 0 0 0 0 0 0 0 0 0 0 0 0 0
0 0 0 0 0 0 0 0 0 0 0 0 0 0 0 0 0 0 0 0 0 0 0 0 0 0 0 0 0 0 0 0 0 0 0 0 0 0 0 0 0 0 0 0 0
0 0 0 0 0 0 0 0 0 0 0 0 0 0 0 0 0 0 0 0 0 0 0 0 0 0 0 0 0 0 0 0 0 0 0 0 0 0 0 0 0 0 0 0 0
0 0 0 0 0 0 0 0 0 0 0 0 0 0 0 0 0 0 0 0 0 0 0 0 0 0 0 0 0 0 0 0 0 0 0 0 0 0 0 0 0 0 0 0 0
0 0 0 0 0 0 0 0 0 0 0 0 0 0 0 0 0 0 0 0 0 0 0 0 0 0 0 0 0 0 0 0 0 0 0 0 0 0 0 0 0 0 0 0 0
0 0 0 0 0 0 0 0 0 0 0 0 0 0 0 0 0 0 0 0 0 0 0 0 0 0 0 0 0 0 0 0 0 0 0 0 0 0 0 0 0 0 0 0 0
0 0 0 0 0 0 0 0 0 0 0 0 0 0 0 0 0 0 0 0 0 0 0 0 0 0 0 0 0 0 0 0 0 0 0 0 0 0 0 0 0 0 0 0 0
0 0 0 0 0 0 0 0 0 0 0 0 0 0 0 0 0 0 0 0 0 0 0 0 0 0 0 0 0 0 0 0 0 0 0 0 0 0 0 0 0 0 0 0 0
0 0 0 0 0 0 0 0 0 0 0 0 0 0 0 0 0 0 0 0 0 0 0 0 0 0 0 0 0 0 0 0 0 0 0 0 0 0 0 0 0 0 0 0 0
0 0 0 0 0 0 0 0 0 0 0 0 0 0 0 0 0 0 0 0 0 0 0 0 0 0 0 0 0 0 0 0 0 0 0 0 0 0 0 0 0 0 0 0 0
0 0 0 0 0 0 0 0 0 0 0 0 0 0 0 0 0 0 0 0 0 0 0 0 0 0 0 0 0 0 0 0 0 0 0 0 0 0 0 0 0 0 0 0 0
0 0 0 0 0 0 0 0 0 0 0 0 0 0 0 0 0 0 0 0 0 0 0 0 0 0 0 0 0 0 0 0 0 0 0 0 0 0 0 0 0 0 0 0 0
0 0 0 0 0 0 0 0 0 0 0 0 0 0 0 0 0 0 0 0 0 0 0 0 0 0 0 0 0 0 0 0 0 0 0 0 0 0 0 0 0 0 0 0 0
0 0 0 0 0 0 0 0 0 0 0 0 0 0 0 0 0 0 0 0 0 0 0 0 0 0 0 0 0 0 0 0 0 0 0 0 0 0 0 0 0 0 0 0 0
Wind_Speed_500mb
9 7 7 6 6 6 6 7 8 8 9 10 11 13 14 16 17 17 8 11 10 11 9 4 2 2 4 3 4 2 8 11 8 12 9 12 14 7 1 5 5 3 4 4 8
13 11 10 9 9 10 9 10 10 11 12 14 14 15 17 18 19 17 14 12 11 10 9 5 4 2 3 1 2 7 8 3 6 0 8 14 9 8 10 13 12 9 3 8 9
18 16 15 14 14 14 13 13 13 14 15 16 17 18 19 19 18 8 6 6 8 11 13 13 8 3 6 5 4 2 8 4 6 6 4 8 8 5 10 12 11 4 2 5 3
24 22 20 19 18 19 18 17 16 16 17 18 18 18 16 14 8 5 4 4 9 16 15 8 3 5 7 8 4 10 5 3 3 7 4 9 3 9 10 6 6 4 4 5 6
30 29 27 25 24 23 23 21 20 19 19 19 18 19 16 9 13 15 9 9 11 13 11 6 7 6 13 4 6 11 5 6 7 9 11 5 15 15 11 6 6 5 9 5 3
36 34 32 31 29 28 27 25 24 23 22 21 20 18 14 19 19 18 18 16 16 16 14 9 6 7 6 6 10 3 7 11 12 19 16 14 16 9 13 14 12 9 5 2 2
41 39 37 35 34 33 31 29 27 26 25 22 20 19 21 26 21 17 17 19 20 20 11 17 11 8 6 5 5 6 12 17 26 24 12 14 18 23 20 19 13 9 4 2 7
44 43 42 39 37 36 35 32 30 29 27 24 20 17 18 25 29 32 28 22 20 20 20 17 14 9 7 5 5 10 9 16 16 18 9 19 16 20 19 22 17 10 7 7 12
40 42 43 42 38 37 37 34 33 31 28 24 19 13 16 24 29 34 28 19 21 19 18 16 13 9 10 13 16 17 21 17 9 18 8 21 6 22 15 24 21 15 11 9 7
38 41 44 44 41 37 36 35 32 31 30 24 25 12 28 15 22 27 31 23 13 18 11 12 13 15 16 20 21 21 24 21 21 15 17 21 27 18 20 22 23 19 17 13 10
39 38 43 46 44 40 34 26 20 14 31 26 12 13 6 25 19 21 32 27 16 19 19 23 19 29 38 34 35 18 21 25 15 7 8 27 31 23 30 24 25 24 21 16 12
46 42 38 42 44 41 33 18 22 10 18 32 48 34 25 24 13 26 35 24 23 24 24 9 31 37 27 20 30 27 30 33 26 9 9 26 35 31 32 35 32 29 24 23 19
55 49 42 36 37 40 41 40 30 18 17 33 42 38 38 44 25 36 49 24 20 29 34 34 11 14 21 15 22 31 33 30 30 4 22 25 39 44 33 24 22 25 25 26 28
52 58 50 41 36 41 43 38 25 7 13 30 22 24 41 32 23 33 55 21 15 31 29 29 38 13 22 31 28 33 29 29 26 12 21 11 19 11 29 27 32 36 37 37 36
37 49 64 64 35 40 32 29 26 15 15 7 17 12 21 40 20 21 46 26 29 20 16 12 20 26 28 22 24 14 5 14 22 28 30 35 17 25 16 25 35 45 47 46 44
53 43 43 60 58 42 30 36 34 9 27 10 13 14 18 32 4 11 21 13 13 20 23 29 6 19 18 6 20 20 12 6 5 17 25 34 31 29 22 24 34 48 53 54 51
58 56 54 58 77 59 43 61 12 13 11 21 15 20 30 21 17 18 29 28 26 19 34 29 32 11 13 12 8 26 16 8 11 12 16 6 28 36 10 17 31 53 65 62 56
60 60 57 64 72 76 65 21 14 39 53 18 8 22 27 27 20 22 27 24 45 35 16 30 19 46 35 45 22 38 34 13 13 16 17 2 19 14 9 25 20 54 65 63 60
51 59 65 58 72 75 61 24 27 32 45 34 14 18 28 20 13 26 30 23 25 45 28 23 22 9 21 21 34 20 26 30 10 3 8 15 21 11 15 14 21 49 61 65 66
44 54 74 72 51 87 38 32 27 38 5 43 53 35 34 29 24 31 33 24 22 44 39 5 12 10 9 5 12 14 20 12 13 12 15 17 24 19 23 31 30 43 63 66 64
40 29 47 64 59 47 25 21 40 40 39 22 44 33 44 31 37 27 19 12 36 35 49 12 11 10 12 25 34 15 18 18 13 18 8 9 14 21 29 38 43 44 62 69 71
45 19 35 45 27 9 26 26 42 41 37 15 16 35 36 37 36 39 36 28 49 37 30 23 2 22 31 7 26 36 29 40 13 13 19 12 21 8 8 29 46 54 65 69 73
31 42 33 48 17 26 12 36 35 34 42 22 27 32 28 23 14 41 41 32 40 34 35 25 9 9 8 10 5 17 29 38 40 3 35 16 16 7 12 18 42 48 58 66 69
25 11 26 52 45 26 24 23 38 50 26 46 32 41 27 31 31 23 28 8 33 37 26 24 13 20 32 11 18 19 36 38 33 23 43 41 33 14 21 25 35 42 53 66 73
18 16 21 12 32 42 37 9 36 26 48 43 27 44 35 22 36 44 39 6 7 18 6 22 18 31 49 44 14 14 30 49 53 72 37 71 44 27 33 32 47 53 50 59 67
12 6 15 35 38 38 34 33 33 21 22 29 37 40 42 38 39 24 30 27 29 14 17 8 17 28 41 44 41 38 33 52 65 68 58 65 50 20 45 46 40 55 61 63 68
22 33 11 18 28 22 31 41 38 24 14 57 45 43 44 58 61 34 12 20 20 31 30 21 14 13 33 29 36 8 71 48 57 67 51 58 70 8 15 23 45 51 54 62 67
Wind_Direction_500mb
202 208 208 220 243 252 265 280 290 299 301 306 313 318 321 318 317 316 306 265 249 237 217 210 248 297 60 29 24 357 247 235 226 229 186 165 190 170 194 193 117 62 83 221 270
225 234 248 255 258 268 276 284 289 297 299 307 313 317 321 321 319 307 284 260 247 215 184 179 199 166 214 226 287 266 264 287 1 184 197 165 222 175 217 192 174 104 37 302 299
238 244 253 263 273 276 278 281 287 293 297 304 310 315 320 326 323 245 263 233 197 186 173 167 163 250 244 237 207 182 279 96 161 149 167 183 220 215 247 234 49 325 81 328 1
254 257 261 265 271 276 277 278 281 287 293 298 304 308 312 321 311 292 223 181 155 153 150 161 226 261 274 243 206 244 195 207 160 177 196 217 263 243 252 76 129 125 153 110 87
256 260 264 268 271 273 276 277 279 281 285 292 298 303 311 276 259 264 246 217 199 187 183 213 258 268 252 239 230 247 183 198 199 191 217 247 246 262 201 160 167 182 145 109 94
256 260 264 268 270 271 272 274 276 279 283 287 293 296 295 264 262 258 248 238 223 214 222 218 264 238 270 243 247 19 257 242 225 228 235 226 229 204 199 170 151 142 125 124 242
254 258 261 266 268 269 270 271 274 276 278 281 285 290 274 259 261 257 239 235 229 222 227 235 230 204 184 225 224 266 271 242 229 231 236 211 229 227 155 167 168 169 167 253 293
256 256 258 259 262 265 267 269 271 273 275 277 280 285 265 254 250 245 236 230 226 226 222 226 206 188 233 158 208 250 247 255 119 186 195 195 258 151 177 185 193 209 226 250 266
257 257 255 255 256 261 265 267 269 272 272 273 278 260 260 255 237 233 221 219 219 219 214 201 175 210 170 222 241 212 263 216 201 200 162 207 234 163 192 203 212 214 219 226 242
263 255 254 253 252 254 260 265 271 274 269 270 254 261 241 239 229 219 213 197 174 174 151 177 200 221 226 217 235 259 227 250 252 166 216 220 251 168 188 205 213 214 214 215 214
269 261 253 251 251 250 254 262 276 275 233 214 222 220 196 217 205 197 196 178 157 190 208 200 218 219 227 228 250 287 275 263 272 106 257 242 256 226 197 209 217 214 207 199 185
262 262 257 252 248 246 239 221 236 232 287 255 241 234 233 201 184 199 180 178 188 206 200 185 229 238 248 276 238 241 252 255 262 160 245 267 261 254 194 216 222 217 202 190 172
254 251 250 246 245 241 236 231 237 254 261 258 236 226 218 215 212 196 182 197 209 211 199 224 225 236 203 214 216 234 243 255 261 152 237 272 268 249 225 211 214 212 196 183 173
250 246 238 234 238 240 237 232 223 224 269 243 200 226 198 194 229 214 199 184 204 225 212 244 233 187 200 228 215 244 229 253 265 244 264 176 281 266 201 204 207 201 186 177 168
244 244 235 224 218 213 232 218 178 162 266 16 133 188 172 185 143 184 183 201 218 194 176 211 179 201 214 217 201 249 99 224 246 257 270 249 267 260 156 214 207 198 190 180 174
247 244 239 235 217 223 218 174 167 203 230 171 136 168 154 201 139 109 174 183 227 229 233 259 21 208 215 120 188 129 110 93 244 258 254 237 225 255 199 214 193 193 189 180 175
244 240 236 236 220 208 186 157 186 207 200 206 177 179 194 175 172 175 180 190 188 192 224 220 220 182 175 140 148 194 175 244 234 212 255 314 219 252 169 186 185 182 184 180 175
242 243 242 245 230 214 180 171 206 220 217 85 154 179 187 171 204 179 176 206 221 224 289 212 221 200 198 213 192 199 198 202 250 239 263 83 235 243 9 141 176 182 178 177 178
247 238 240 244 227 211 181 204 211 209 205 204 142 200 205 196 214 186 210 219 206 209 205 207 233 186 192 218 212 178 223 233 315 132 271 219 244 221 157 164 173 177 178 180 182
242 232 239 237 232 202 198 201 237 226 265 207 213 199 205 196 193 196 194 219 214 203 210 236 249 181 150 166 260 225 166 175 207 225 239 241 244 239 204 189 176 178 185 184 184
220 227 245 242 232 211 213 210 228 230 231 235 223 228 230 201 202 197 207 197 201 195 197 206 236 131 148 203 187 185 212 222 219 220 253 273 243 194 202 188 185 185 186 184 186
206 214 235 205 203 232 223 215 221 217 224 236 242 242 231 226 205 218 218 219 197 158 182 197 257 243 226 189 245 225 214 206 208 197 235 275 258 160 159 180 180 183 188 190 190
215 218 219 203 220 220 231 232 228 216 213 204 216 226 231 218 228 233 230 229 183 178 176 165 182 232 270 207 173 221 217 224 227 51 229 200 248 138 133 169 183 183 185 189 188
217 212 200 206 226 219 214 233 219 224 224 224 232 226 223 227 221 250 224 161 194 203 203 161 152 208 231 229 151 200 210 208 216 225 234 231 235 178 195 185 183 187 186 185 189
242 215 211 205 218 232 241 302 222 218 216 206 230 232 220 220 228 234 241 111 164 216 168 176 225 214 245 259 252 208 206 206 209 227 214 244 232 211 195 188 188 186 183 186 191
271 225 233 237 207 216 206 219 241 275 225 211 221 220 226 224 215 229 215 217 219 174 181 179 233 224 249 244 246 248 243 223 217 229 233 247 251 229 189 195 178 181 180 187 192
252 263 269 205 225 201 212 216 217 222 262 238 222 222 221 229 233 255 259 217 225 204 188 181 208 205 246 234 246 304 231 227 231 226 227 235 242 125 152 193 192 184 180 193 198
Wind_Speed_850mb
9 7 7 6 6 6 6 7 8 8 9 10 11 13 14 16 17 17 8 11 10 11 9 4 2 2 4 3 4 2 8 11 8 12 9 12 14 7 1 5 5 3 4 4 8
13 11 10 9 9 10 9 10 10 11 12 14 14 15 17 18 19 17 14 12 11 10 9 5 4 2 3 1 2 7 8 3 6 0 8 14 9 8 10 13 12 9 3 8 9
18 16 15 14 14 14 13 13 13 14 15 16 17 18 19 19 18 8 6 6 8 11 13 13 8 3 6 5 4 2 8 4 6 6 4 8 8 5 10 12 11 4 2 5 3
24 22 20 19 18 19 18 17 16 16 17 18 18 18 16 14 8 5 4 4 9 16 15 8 3 5 7 8 4 10 5 3 3 7 4 9 3 9 10 6 6 4 4 5 6
30 29 27 25 24 23 23 21 20 19 19 19 18 19 16 9 13 15 9 9 11 13 11 6 7 6 13 4 6 11 5 6 7 9 11 5 15 15 11 6 6 5 9 5 3
36 34 32 31 29 28 27 25 24 23 22 21 20 18 14 19 19 18 18 16 16 16 14 9 6 7 6 6 10 3 7 11 12 19 16 14 16 9 13 14 12 9 5 2 2
41 39 37 35 34 33 31 29 27 26 25 22 20 19 21 26 21 17 17 19 20 20 11 17 11 8 6 5 5 6 12 17 26 24 12 14 18 23 20 19 13 9 4 2 7
44 43 42 39 37 36 35 32 30 29 27 24 20 17 18 25 29 32 28 22 20 20 20 17 14 9 7 5 5 10 9 16 16 18 9 19 16 20 19 22 17 10 7 7 12
40 42 43 42 38 37 37 34 33 31 28 24 19 13 16 24 29 34 28 19 21 19 18 16 13 9 10 13 16 17 21 17 9 18 8 21 6 22 15 24 21 15 11 9 7
38 41 44 44 41 37 36 35 32 31 30 24 25 12 28 15 22 27 31 23 13 18 11 12 13 15 16 20 21 21 24 21 21 15 17 21 27 18 20 22 23 19 17 13 10
39 38 43 46 44 40 34 26 20 14 31 26 12 13 6 25 19 21 32 27 16 19 19 23 19 29 38 34 35 18 21 25 15 7 8 27 31 23 30 24 25 24 21 16 12
46 42 38 42 44 41 33 18 22 10 18 32 48 34 25 24 13 26 35 24 23 24 24 9 31 37 27 20 30 27 30 33 26 9 9 26 35 31 32 35 32 29 24 23 19
55 49 42 36 37 40 41 40 30 18 17 33 42 38 38 44 25 36 49 24 20 29 34 34 11 14 21 15 22 31 33 30 30 4 22 25 39 44 33 24 22 25 25 26 28
52 58 50 41 36 41 43 38 25 7 13 30 22 24 41 32 23 33 55 21 15 31 29 29 38 13 22 31 28 33 29 29 26 12 21 11 19 11 29 27 32 36 37 37 36
37 49 64 64 35 40 32 29 26 15 15 7 17 12 21 40 20 21 46 26 29 20 16 12 20 26 28 22 24 14 5 14 22 28 30 35 17 25 16 25 35 45 47 46 44
53 43 43 60 58 42 30 36 34 9 27 10 13 14 18 32 4 11 21 13 13 20 23 29 6 19 18 6 20 20 12 6 5 17 25 34 31 29 22 24 34 48 53 54 51
58 56 54 58 77 59 43 61 12 13 11 21 15 20 30 21 17 18 29 28 26 19 34 29 32 11 13 12 8 26 16 8 11 12 16 6 28 36 10 17 31 53 65 62 56
60 60 57 64 72 76 65 21 14 39 53 18 8 22 27 27 20 22 27 24 45 35 16 30 19 46 35 45 22 38 34 13 13 16 17 2 19 14 9 25 20 54 65 63 60
51 59 65 58 72 75 61 24 27 32 45 34 14 18 28 20 13 26 30 23 25 45 28 23 22 9 21 21 34 20 26 30 10 3 8 15 21 11 15 14 21 49 61 65 66
44 54 74 72 51 87 38 32 27 38 5 43 53 35 34 29 24 31 33 24 22 44 39 5 12 10 9 5 12 14 20 12 13 12 15 17 24 19 23 31 30 43 63 66 64
40 29 47 64 59 47 25 21 40 40 39 22 44 33 44 31 37 27 19 12 36 35 49 12 11 10 12 25 34 15 18 18 13 18 8 9 14 21 29 38 43 44 62 69 71
45 19 35 45 27 9 26 26 42 41 37 15 16 35 36 37 36 39 36 28 49 37 30 23 2 22 31 7 26 36 29 40 13 13 19 12 21 8 8 29 46 54 65 69 73
31 42 33 48 17 26 12 36 35 34 42 22 27 32 28 23 14 41 41 32 40 34 35 25 9 9 8 10 5 17 29 38 40 3 35 16 16 7 12 18 42 48 58 66 69
25 11 26 52 45 26 24 23 38 50 26 46 32 41 27 31 31 23 28 8 33 37 26 24 13 20 32 11 18 19 36 38 33 23 43 41 33 14 21 25 35 42 53 66 73
18 16 21 12 32 42 37 9 36 26 48 43 27 44 35 22 36 44 39 6 7 18 6 22 18 31 49 44 14 14 30 49 53 72 37 71 44 27 33 32 47 53 50 59 67
12 6 15 35 38 38 34 33 33 21 22 29 37 40 42 38 39 24 30 27 29 14 17 8 17 28 41 44 41 38 33 52 65 68 58 65 50 20 45 46 40 55 61 63 68
22 33 11 18 28 22 31 41 38 24 14 57 45 43 44 58 61 34 12 20 20 31 30 21 14 13 33 29 36 8 71 48 57 67 51 58 70 8 15 23 45 51 54 62 67
Wind_Direction_850mb
202 208 208 220 243 252 265 280 290 299 301 306 313 318 321 318 317 316 306 265 249 237 217 210 248 297 60 29 24 357 247 235 226 229 186 165 190 170 194 193 117 62 83 221 270
225 234 248 255 258 268 276 284 289 297 299 307 313 317 321 321 319 307 284 260 247 215 184 179 199 166 214 226 287 266 264 287 1 184 197 165 222 175 217 192 174 104 37 302 299
238 244 253 263 273 276 278 281 287 293 297 304 310 315 320 326 323 245 263 233 197 186 173 167 163 250 244 237 207 182 279 96 161 149 167 183 220 215 247 234 49 325 81 328 1
254 257 261 265 271 276 277 278 281 287 293 298 304 308 312 321 311 292 223 181 155 153 150 161 226 261 274 243 206 244 195 207 160 177 196 217 263 243 252 76 129 125 153 110 87
256 260 264 268 271 273 276 277 279 281 285 292 298 303 311 276 259 264 246 217 199 187 183 213 258 268 252 239 230 247 183 198 199 191 217 247 246 262 201 160 167 182 145 109 94
256 260 264 268 270 271 272 274 276 279 283 287 293 296 295 264 262 258 248 238 223 214 222 218 264 238 270 243 247 19 257 242 225 228 235 226 229 204 199 170 151 142 125 124 242
254 258 261 266 268 269 270 271 274 276 278 281 285 290 274 259 261 257 239 235 229 222 227 235 230 204 184 225 224 266 271 242 229 231 236 211 229 227 155 167 168 169 167 253 293
256 256 258 259 262 265 267 269 271 273 275 277 280 285 265 254 250 245 236 230 226 226 222 226 206 188 233 158 208 250 247 255 119 186 195 195 258 151 177 185 193 209 226 250 266
257 257 255 255 256 261 265 267 269 272 272 273 278 260 260 255 237 233 221 219 219 219 214 201 175 210 170 222 241 212 263 216 201 200 162 207 234 163 192 203 212 214 219 226 242
263 255 254 253 252 254 260 265 271 274 269 270 254 261 241 239 229 219 213 197 174 174 151 177 200 221 226 217 235 259 227 250 252 166 216 220 251 168 188 205 213 214 214 215 214
269 261 253 251 251 250 254 262 276 275 233 214 222 220 196 217 205 197 196 178 157 190 208 200 218 219 227 228 250 287 275 263 272 106 257 242 256 226 197 209 217 214 207 199 185
262 262 257 252 248 246 239 221 236 232 287 255 241 234 233 201 184 199 180 178 188 206 200 185 229 238 248 276 238 241 252 255 262 160 245 267 261 254 194 216 222 217 202 190 172
254 251 250 246 245 241 236 231 237 254 261 258 236 226 218 215 212 196 182 197 209 211 199 224 225 236 203 214 216 234 243 255 261 152 237 272 268 249 225 211 214 212 196 183 173
250 246 238 234 238 240 237 232 223 224 269 243 200 226 198 194 229 214 199 184 204 225 212 244 233 187 200 228 215 244 229 253 265 244 264 176 281 266 201 204 207 201 186 177 168
244 244 235 224 218 213 232 218 178 162 266 16 133 188 172 185 143 184 183 201 218 194 176 211 179 201 214 217 201 249 99 224 246 257 270 249 267 260 156 214 207 198 190 180 174
247 244 239 235 217 223 218 174 167 203 230 171 136 168 154 201 139 109 174 183 227 229 233 259 21 208 215 120 188 129 110 93 244 258 254 237 225 255 199 214 193 193 189 180 175
244 240 236 236 220 208 186 157 186 207 200 206 177 179 194 175 172 175 180 190 188 192 224 220 220 182 175 140 148 194 175 244 234 212 255 314 219 252 169 186 185 182 184 180 175
242 243 242 245 230 214 180 171 206 220 217 85 154 179 187 171 204 179 176 206 221 224 289 212 221 200 198 213 192 199 198 202 250 239 263 83 235 243 9 141 176 182 178 177 178
247 238 240 244 227 211 181 204 211 209 205 204 142 200 205 196 214 186 210 219 206 209 205 207 233 186 192 218 212 178 223 233 315 132 271 219 244 221 157 164 173 177 178 180 182
242 232 239 237 232 202 198 201 237 226 265 207 213 199 205 196 193 196 194 219 214 203 210 236 249 181 150 166 260 225 166 175 207 225 239 241 244 239 204 189 176 178 185 184 184
220 227 245 242 232 211 213 210 228 230 231 235 223 228 230 201 202 197 207 197 201 195 197 206 236 131 148 203 187 185 212 222 219 220 253 273 243 194 202 188 185 185 186 184 186
206 214 235 205 203 232 223 215 221 217 224 236 242 242 231 226 205 218 218 219 197 158 182 197 257 243 226 189 245 225 214 206 208 197 235 275 258 160 159 180 180 183 188 190 190
215 218 219 203 220 220 231 232 228 216 213 204 216 226 231 218 228 233 230 229 183 178 176 165 182 232 270 207 173 221 217 224 227 51 229 200 248 138 133 169 183 183 185 189 188
217 212 200 206 226 219 214 233 219 224 224 224 232 226 223 227 221 250 224 161 194 203 203 161 152 208 231 229 151 200 210 208 216 225 234 231 235 178 195 185 183 187 186 185 189
242 215 211 205 218 232 241 302 222 218 216 206 230 232 220 220 228 234 241 111 164 216 168 176 225 214 245 259 252 208 206 206 209 227 214 244 232 211 195 188 188 186 183 186 191
271 225 233 237 207 216 206 219 241 275 225 211 221 220 226 224 215 229 215 217 219 174 181 179 233 224 249 244 246 248 243 223 217 229 233 247 251 229 189 195 178 181 180 187 192
252 263 269 205 225 201 212 216 217 222 262 238 222 222 221 229 233 255 259 217 225 204 188 181 208 205 246 234 246 304 231 227 231 226 227 235 242 125 152 193 192 184 180 193 198